www.pogodaiklimat.ru

Погода и климат >> Архив погоды >> Россия >> Краснодарский край >> Псебай


ПОГОДА в Псебае

  • Прогноз погоды в Псебае
  • Монитор погоды в Псебае

АРХИВ ПОГОДЫ в Псебае

Время (UTC), дата Ветер
(напр.,м/с)
 
Видим.   Явления Облачность Т
(С)
Тd
(С)
f
(%)
Тe
(С)
Тes
(С)
Комфортность P
(гПа)
Po
(гПа)
Тmin
(С)
Tmax
(С)
R
(мм)
R24
(мм)
S
(см)
15 9.07 СВ 1
{12}
20 км в посл. час ливневой дождь 10/10 600 м
[Cb calv]
+19.5 +13.7 69 +22 +22 комфорт 1011.4 941.5 +25.8 0.0
18 9.07 В 1 10 км {ливн. осадки} 10/10 1000 м
[Cb calv]
+17.8 +14.5 81 +19 +19 1012.6 942.2
21 9.07 СВ 2 10 км 10/8 1000 м
[Cb calv Ci ing]
+16.6 +11.5 72 +17 +17 1013.0 942.2
00 10.07 штиль 0 10 км 10/4 1000 м
[Cb calv Ci fib]
+13.2 +11.0 87 +13 +13 1012.8 941.2
03 10.07 Ю 2 20 км 1/0
[Ci fib]
+12.5 +10.1 85 +12 +13 1011.5 939.8 +11.7 0.3
06 10.07 З 1 20 км 4/0
[Ci]
+20.4 +9.0 48 +23 +34 комфорт 1008.6 938.9
09 10.07 С 3 20 км 8/1 1000 м
[Cu hum Ci]
+25.0 +9.2 37 +26 +38 жарко 1006.7 938.2
12 10.07 С 2 20 км 9/9 1000 м
[Cb calv]
+24.8 +9.7 38 +26 +27 жарко 1005.7 937.2
15 10.07 С 3 20 км 10/9 1000 м
[Cb calv Ci]
+23.1 +10.4 45 +25 +25 комфорт 1006.2 937.3 +26.8
18 10.07 С 2 10 км 10/4 1000 м
[Cb calv Ci]
+18.7 +11.4 63 +20 +20 1007.7 937.8
21 10.07 Ю 1 10 км 10/3 1000 м
[Cb calv Ac trans Ci fib]
+13.8 +11.2 84 +14 +14 1008.7 937.6
00 11.07 штиль 0 10 км 10/0
[Ci fib]
+12.5 +10.9 90 +12 +12 1007.9 936.5
03 11.07 штиль 0 20 км 10/10 1000 м
[Cb calv]
+13.2 +11.7 91 +13 +13 1007.0 935.9 +11.6
06 11.07 Ю 1 20 км 9/9 1000 м
[Cb calv]
+18.9 +12.4 66 +21 +22 комфорт 1004.4 934.8
09 11.07 СВ 3 20 км 8/8 1000 м
[Cb calv]
+24.1 +12.3 48 +26 +29 жарко 1002.4 934.1
12 11.07 С 3 20 км 10/10 1000 м
[Cb calv]
+20.3 +11.6 57 +22 +22 комфорт 1004.4 935.1
15 11.07 С 3 20 км 10/5 1000 м
[Cb calv Ci]
+20.1 +11.7 58 +22 +23 комфорт 1004.2 934.9 +25.2
18 11.07 СВ 2 10 км 10/10 1000 м
[Cb calv]
+17.6 +12.8 73 +18 +18 1005.1 935.2
21 11.07 С 2 10 км 10/10 600 м
[Cb calv]
+16.2 +12.4 78 +16 +16 1004.5 934.2
00 12.07 С 2 10 км слаб. ливневой дождь 10/10 600 м
[Cb cap]
+14.9 +13.4 91 +15 +15 1004.3 933.8
03 12.07 С 1 4000 м ливневой дождь 10/10 300 м
[Cb cap]
+13.9 +12.6 92 +14 +14 1005.7 934.8 +13.9 14
06 12.07 СВ 1 10 км слаб. ливневой дождь 10/10 300 м
[Cb cap]
+14.2 +12.6 90 +14 +14 1007.5 936.6 +13.7
09 12.07 СВ 2 20 км {ливн. осадки} 10/10 600 м
[Cb calv]
+14.6 +12.7 88 +14 +14 1008.6 937.7
12 12.07 С 2 20 км {ливн. осадки} 10/10 600 м
[Cb calv]
+16.6 +12.7 78 +17 +17 1009.0 938.6
15 12.07 С 2 20 км 10/10 600 м
[Cb calv]
+16.5 +12.3 76 +17 +17 1009.5 939.0 +16.8 8
18 12.07 штиль 0 10 км 10/8 1000 м
[Cb calv Ci ing]
+15.3 +13.2 87 +15 +15 1010.4 939.6
21 12.07 Ю 2 10 км 10/10 600 м
[Cb calv]
+13.6 +12.2 91 +13 +13 1010.3 939.0
00 13.07 Ю 1 10 км 10/10 600 м
[Cb calv]
+13.3 +11.8 91 +13 +13 1009.6 938.3
03 13.07 Ю 2 20 км 10/10 1000 м
[Cb calv]
+13.1 +11.8 92 +12 +12 1009.8 938.4 +12.1
06 13.07 С 1 20 км {ливн. осадки} 10/8 1000 м
[Cb calv Ci fib]
+18.9 +13.3 70 +21 +23 комфорт 1008.8 938.9
09 13.07 С 4 20 км в посл. час ливневой дождь 10/9 1000 м
[Cb calv Ci]
+19.4 +14.5 73 +21 +22 комфорт 1008.5 938.8
12 13.07 С 4 20 км {ливн. осадки} 10/8 1000 м
[Cb calv Ci fib]
+20.3 +11.9 58 +22 +24 комфорт 1008.6 939.0
15 13.07 С 4 20 км 8/5 1000 м
[Cb calv Ci fib]
+20.7 +10.0 50 +22 +23 комфорт 1009.5 939.9 +21.2 0.5
18 13.07 С 2 10 км {ливн. осадки} 10/8 1000 м
[Cb calv Ci]
+15.7 +12.7 82 +16 +16 1012.1 941.2
21 13.07 СВ 1 10 км 9/9 1000 м
[Cb calv]
+15.3 +12.5 83 +16 +16 1012.2 941.3
00 14.07 штиль 0 10 км 10/10 1000 м
[Cb calv]
+14.7 +12.4 86 +14 +14 1011.4 940.3
03 14.07 Ю 2 20 км 10/9 1000 м
[Cb calv Ci]
+14.4 +10.5 77 +14 +14 1011.7 940.5 +14.2 0.3
06 14.07 С 1 20 км 3/3 1000 м
[Cu hum Ci fib]
+19.4 +11.2 59 +22 +30 комфорт 1010.1 940.2
09 14.07 С 3 20 км 4/4 1000 м
[Cb calv]
+22.1 +10.2 47 +24 +33 комфорт 1008.5 939.3
12 14.07 СВ 3 20 км 9/8 1000 м
[Cb calv Ci fib]
+22.3 +10.1 46 +24 +26 комфорт 1007.6 938.5
15 14.07 СВ 2 20 км 10/8 1000 м
[Cb calv Ci]
+21.9 +10.4 48 +24 +24 комфорт 1007.2 938.0 +24.1
18 14.07 ЮВ 2 10 км 10/10 1000 м
[Cb calv]
+17.7 +12.2 70 +18 +18 1008.6 938.4
21 14.07 штиль 0 10 км 10/1 1000 м
[Sc Ci fib]
+13.6 +11.4 87 +13 +13 1008.3 937.1
00 15.07 Ю 2 10 км ясно +10.8 +9.4 91 +9 +9 1008.0 936.1
03 15.07 Ю 1 20 км 1/0
[Ci]
+11.9 +10.1 89 +12 +13 1006.4 935.0 +9.4
06 15.07 штиль 0 20 км 10/8 1000 м
[Cb calv Ci]
+18.9 +9.8 55 +19 +22 1004.2 934.5
09 15.07 СЗ 1 20 км 10/10 1000 м
[Cb calv]
+20.8 +13.1 61 +24 +24 комфорт 1003.2 934.1
12 15.07 Ю 3 20 км 10/10 600 м
[Cb calv]
+18.6 +14.1 75 +19 +19 1004.3 934.7
15 15.07 ЮВ 3 10 км слаб. ливневой дождь, в посл. час гроза 10/10 600 м
[Cb cap]
+15.9 +13.8 87 +15 +15 1007.2 936.8 +20.9 5
18 15.07 Ю 3
{10}
10 км {гроза, ливн. осадки} 10/6 600 м
[Cb calv Ac cuf Ci ing]
+14.4 +11.9 85 +13 +13 1006.3 935.5
21 15.07 штиль 0 10 км 10/0 1000 м
[As trans]
+13.3 +11.2 87 +13 +13 1007.1 935.9
00 16.07 ЮЗ 1 10 км 10/10 1000 м
[Cb calv]
+12.9 +11.2 89 +13 +13 1007.2 936.0
03 16.07 штиль 0 20 км 10/8 1000 м
[Cb calv Ci ing]
+13.4 +11.9 91 +13 +13 1007.3 936.2 +12.3 2
06 16.07 штиль 0 20 км 10/6 1000 м
[Cb calv Ci fib]
+18.9 +13.4 70 +20 +24 1006.0 936.3
09 16.07 С 3 20 км 8/8 1000 м
[Cb calv]
+22.7 +15.3 63 +27 +30 душно 1004.7 936.0

 

Местоположение метеостанции Псебай (Краснодарский край, Россия): широта 44.13 долгота 40.78 высота над уровнем моря 621 м.

В архиве по умолчанию представлена погода в Псебае за последнюю неделю. Архивные данные за месяц целиком и за предыдущие месяцы, начиная с января 2011 года, Вы можете получить, выбрав интересующий диапазон дат из раскрывающегося списка и нажав кнопку "Ввод!".


*Определитесь, кто Вы:
робот инопланетянин человек

Внимание! Время в таблицах - всемирное. Для получения местного времени необходимо прибавить поправку, которая равна 3 ч.

Смотрите также архив погоды в соседних городах и на ближайших метеорологических станциях:

Погода в Гузерипле (Адыгея, Россия) (54 км)
Погода в Лабинске (Краснодарский край, Россия) (60 км)
Погода в Даховской (Адыгея, Россия) (60 км)
Погода на Кордоне Лаура (Краснодарский край, Россия) (61 км)
Погода в Отрадной (Краснодарский край, Россия) (63 км)
Погода в Шунтуке (Адыгея, Россия) (65 км)
Погода в Горная Карусель 1500 (Краснодарский край, Россия) (66 км)
Погода в Горная Карусель 1000 (Краснодарский край, Россия) (66 км)
Погода в Красной Поляне (Краснодарский край, Россия) (68 км)
Погода в Зеленчукской (Карачаево-Черкессия, Россия) (70 км)

Пояснения к столбцам:

Ветер - указаны скорость ветра в м/с - средняя за 10 мин, порывы в срок и между сроками (в фигурных скобках) и направление, откуда дует ветер: С - северный, СВ - северо-восточный, В - восточный, ЮВ - юго-восточный, Ю - южный, ЮЗ - юго-западный, З - западный, СЗ - северо-западный.
Видимость - горизонтальная дальность видимости в метрах или километрах. При видимости от 1 до 10 км при отсутствии осадков обычно наблюдается дымка, при ухудшении видимости до 1 км и менее - туман. В сухую погоду видимость может ухудшаться дымом, пылью или мглою.
Явления - указаны атмосферные явления, наблюдавшиеся в срок или в последний час перед сроком; фигурными скобками обозначены явления, наблюдавшиеся между сроками (за 1-3 часа до срока); квадратными скобками обозначены град или гололедные отложения с указанием их диаметра в мм.
Облачность - указаны через наклонную черту общая и нижняя облачность в баллах и высота нижней границы облаков в метрах; квадратными скобками обозначены формы облаков: Ci - перистые, Cs - перисто-слоистые, Cc - перисто-кучевые, Ac - высококучевые, As - высокослоистые, Sc - слоисто-кучевые, Ns - слоисто-дождевые, Cu - кучевые, Cb - кучево-дождевые. Подробнее классификацию облаков см. в Атласе облаков (PDF).
T - Температура воздуха - температура, измеренная на высоте 2 м над землей.
Td - Температура точки росы - температура, при понижении до которой содержащийся в воздухе водяной пар достигнет насыщения.
f - Относительная влажность воздуха - влажноcть воздуха, измеренная на высоте 2 м над землей.
Te - Эффективная температура - температура, которую ощущает одетый по сезону человек в тени. Характеристика душности погоды. При расчете учитывается влияние влажности воздуха и скорости ветра на теплоощущения человека.
Tes - Эффективная температура на солнце - температура, которую ощущает человек, с поправкой на солнечный нагрев. Характеристика знойности погоды. Зависит от высоты солнца над горизонтом, облачности и скорости ветра. Ночью, в пасмурную погоду, а также при ветре 12 м/с и более поправка равна нулю.
P - Атмосферное давление - приведенное к уровню моря атмосферное давление.
Po - Атмосферное давление - измеренное на уровне метеостанции атмосферное давление.
Tmin - Минимальная температура - минимум температуры воздуха на высоте 2 м над землей.
Tmax - Максимальная температура - максимум температуры воздуха на высоте 2 м над землей.
R - Количество осадков - Количество выпавших осадков за период времени, мм. При наведении курсора мыши на число - период времени, за который выпало указанное количество осадков.
R24 - Количество осадков - Количество выпавших осадков за 24 часа, мм.
S - Снежный покров - Высота снежного покрова, см. При наведении курсора мыши на число - состояние снежного покрова и степень покрытия местности в баллах.